Weather History for Tunica, MS

Change the Weather History Date:

Sunday, March 17, 2013

  Actual Average (KMEM) Record (KMEM)
Temperature  
Mean Temperature 60 °F 54 °F  
Max Temperature 69 °F 64 °F 81 °F (1982)
Min Temperature 51 °F 44 °F 25 °F (1941)
Degree Days  
Heating Degree Days 5 11  
Month to date heating degree days 228  
Since 1 July heating degree days 2678  
Cooling Degree Days 0 1  
Month to date cooling degree days 2  
Year to date cooling degree days 5  
Growing Degree Days 10 (Base 50)    
Moisture  
Dew Point 53 °F    
Average Humidity 76    
Maximum Humidity 94    
Minimum Humidity 60    
Precipitation  
Precipitation 0.00 in 0.17 in 4.26 in (2002)
Month to date precipitation 2.72  
Year to date precipitation 11.09  
Snow  
Snow 0.00 in 0.00 in 18.00 in (1892)
Month to date snowfall 0.3  
Since 1 July snowfall 3.7  
Snow Depth -    
Sea Level Pressure  
Sea Level Pressure 29.83 in    
Wind  
Wind Speed 7 mph (South)    
Max Wind Speed 15 mph    
Max Gust Speed -    
Visibility 8 miles    
Events Rain    
T = Trace of Precipitation, MM = Missing Value Source: NWS Daily Summary

Daily Weather History Graph

Daily Weather History Graph

Search for Another Location

Airport:

Trip Planner

Search our weather history database for the weather conditions in past years. The results will help you decide how hot, cold, wet, or windy it might be!

Date:

Astronomy

Mar. 17, 2013 Rise Set
Actual Time 7:08 AM CDT 7:10 PM CDT
Civil Twilight 6:43 AM CDT 7:36 PM CDT
Nautical Twilight 6:14 AM CDT 8:05 PM CDT
Astronomical Twilight 5:44 AM CDT 8:34 PM CDT
Moon 10:35 AM CDT (3/17) 12:06 AM CDT (3/17)
Length of Visible Light 12h 52m
Length of Day
12h 02m
Waxing Crescent, 31% of the Moon is Illuminated
Mar 17
Waxing Crescent
Mar 19
First Quarter
Mar 27
Full
Apr 2
Last Quarter
Apr 10
New

Hourly Weather History & Observations

Time (CDT) Temp. Dew Point Humidity Pressure Visibility Wind Dir Wind Speed Gust Speed Precip Events Conditions
12:15 AM 62.6 °F 50.0 °F 63% 29.88 in 10.0 mi SSW 11.5 mph - N/A   Clear
12:35 AM 62.6 °F 50.0 °F 63% 29.88 in 10.0 mi SSW 11.5 mph - N/A   Clear
12:55 AM 62.6 °F 50.0 °F 63% 29.88 in 10.0 mi SSW 11.5 mph - N/A   Clear
1:15 AM 62.6 °F 50.0 °F 63% 29.88 in 10.0 mi SSW 10.4 mph - N/A   Clear
1:35 AM 59.0 °F 50.0 °F 72% 29.88 in 10.0 mi South 5.8 mph - N/A   Clear
1:55 AM 55.4 °F 50.0 °F 82% 29.88 in 10.0 mi South 8.1 mph - N/A   Clear
2:15 AM 55.4 °F 50.0 °F 82% 29.88 in 10.0 mi South 8.1 mph - N/A   Clear
2:35 AM 55.4 °F 50.0 °F 82% 29.88 in 10.0 mi South 8.1 mph - N/A   Clear
2:55 AM 55.4 °F 50.0 °F 82% 29.88 in 10.0 mi South 8.1 mph - N/A   Clear
3:15 AM 55.4 °F 50.0 °F 82% 29.88 in 10.0 mi South 6.9 mph - N/A   Scattered Clouds
3:35 AM 55.4 °F 50.0 °F 82% 29.88 in 10.0 mi South 4.6 mph - N/A   Mostly Cloudy
3:55 AM 55.4 °F 51.8 °F 88% 29.88 in 10.0 mi North 5.8 mph - N/A   Overcast
4:15 AM 57.2 °F 51.8 °F 82% 29.88 in 10.0 mi SSW 3.5 mph - N/A   Overcast
4:35 AM 57.2 °F 51.8 °F 82% 29.88 in 10.0 mi South 4.6 mph - N/A   Mostly Cloudy
4:55 AM 57.2 °F 51.8 °F 82% 29.88 in 10.0 mi South 8.1 mph - N/A   Mostly Cloudy
5:15 AM 57.2 °F 51.8 °F 82% 29.89 in 10.0 mi South 5.8 mph - N/A   Overcast
5:35 AM 55.4 °F 51.8 °F 88% 29.89 in 10.0 mi SSE 6.9 mph - N/A   Overcast
5:55 AM 55.4 °F 51.8 °F 88% 29.89 in 10.0 mi South 6.9 mph - N/A   Mostly Cloudy
6:15 AM 55.4 °F 51.8 °F 88% 29.89 in 10.0 mi South 6.9 mph - N/A   Overcast
6:55 AM 55.4 °F 51.8 °F 88% 29.89 in 10.0 mi South 6.9 mph - N/A   Scattered Clouds
7:15 AM 55.4 °F 51.8 °F 88% 29.90 in 10.0 mi South 5.8 mph - N/A   Scattered Clouds
7:35 AM 55.4 °F 53.6 °F 94% 29.91 in 10.0 mi South 5.8 mph - N/A   Overcast
7:55 AM 57.2 °F 53.6 °F 88% 29.92 in 10.0 mi NNW 3.5 mph - N/A   Overcast
8:15 AM 55.4 °F 51.8 °F 88% 29.92 in 10.0 mi North 3.5 mph - N/A   Overcast
8:35 AM 53.6 °F 50.0 °F 88% 29.92 in 4.0 mi Calm Calm - N/A   Mostly Cloudy
8:55 AM 51.8 °F 48.2 °F 88% 29.93 in 2.5 mi North 3.5 mph - N/A   Overcast
9:15 AM 51.8 °F 50.0 °F 94% 29.92 in 2.5 mi North 3.5 mph - N/A   Overcast
9:35 AM 53.6 °F 50.0 °F 88% 29.92 in 3.0 mi NNW 3.5 mph - N/A   Overcast
9:55 AM 53.6 °F 50.0 °F 88% 29.92 in 4.0 mi Calm Calm - N/A   Overcast
10:15 AM 55.4 °F 51.8 °F 88% 29.92 in 4.0 mi NNW 6.9 mph - N/A   Haze
10:35 AM 57.2 °F 51.8 °F 82% 29.91 in 5.0 mi Calm Calm - N/A   Haze
10:55 AM 59.0 °F 51.8 °F 77% 29.91 in 5.0 mi North 4.6 mph - N/A   Haze
11:15 AM 59.0 °F 51.8 °F 77% 29.91 in 5.0 mi NNW 9.2 mph - N/A   Haze
11:35 AM 57.2 °F 50.0 °F 77% 29.91 in 5.0 mi North 9.2 mph - N/A   Haze
11:55 AM 59.0 °F 51.8 °F 77% 29.90 in 5.0 mi North 4.6 mph - N/A   Haze
12:15 PM 59.0 °F 51.8 °F 77% 29.90 in 5.0 mi NNW 3.5 mph - N/A   Haze
12:35 PM 59.0 °F 51.8 °F 77% 29.89 in 7.0 mi NNW 9.2 mph - N/A   Mostly Cloudy
12:55 PM 59.0 °F 50.0 °F 72% 29.88 in 7.0 mi NNW 12.7 mph - N/A   Mostly Cloudy
1:15 PM 55.4 °F 48.2 °F 77% 29.88 in 5.0 mi NNW 15.0 mph - N/A   Haze
1:35 PM 55.4 °F 48.2 °F 77% 29.87 in 5.0 mi North 10.4 mph - N/A   Haze
1:55 PM 59.0 °F 50.0 °F 72% 29.85 in 5.0 mi North 10.4 mph - N/A   Haze
2:15 PM 59.0 °F 51.8 °F 77% 29.85 in 5.0 mi North 10.4 mph - N/A   Haze
2:35 PM 60.8 °F 51.8 °F 72% 29.83 in 5.0 mi North 6.9 mph - N/A   Haze
2:55 PM 62.6 °F 51.8 °F 68% 29.81 in 7.0 mi North 5.8 mph - N/A   Clear
3:15 PM 64.4 °F 51.8 °F 64% 29.80 in 7.0 mi NNE 4.6 mph - N/A   Clear
3:35 PM 64.4 °F 53.6 °F 68% 29.79 in 7.0 mi Calm Calm - N/A   Clear
3:55 PM 66.2 °F 53.6 °F 64% 29.78 in 7.0 mi NNW 3.5 mph - N/A   Clear
4:15 PM 68.0 °F 55.4 °F 64% 29.77 in 7.0 mi North 4.6 mph - N/A   Clear
4:35 PM 68.0 °F 55.4 °F 64% 29.77 in 7.0 mi NNW 5.8 mph - N/A   Clear
4:55 PM 68.0 °F 55.4 °F 64% 29.76 in 7.0 mi NNW 4.6 mph - N/A   Scattered Clouds
5:15 PM 69.8 °F 55.4 °F 60% 29.75 in 10.0 mi Calm Calm - N/A   Scattered Clouds
5:35 PM 68.0 °F 55.4 °F 64% 29.74 in 10.0 mi NW 3.5 mph - N/A   Scattered Clouds
5:55 PM 68.0 °F 57.2 °F 68% 29.74 in 10.0 mi North 4.6 mph - N/A   Scattered Clouds
6:15 PM 68.0 °F 57.2 °F 68% 29.74 in 10.0 mi North 3.5 mph - N/A   Scattered Clouds
6:35 PM 68.0 °F 57.2 °F 68% 29.74 in 10.0 mi Calm Calm - N/A   Mostly Cloudy
6:55 PM 68.0 °F 55.4 °F 64% 29.75 in 10.0 mi Calm Calm - N/A   Mostly Cloudy
7:15 PM 68.0 °F 55.4 °F 64% 29.74 in 10.0 mi SSE 3.5 mph - N/A   Mostly Cloudy
7:35 PM 68.0 °F 57.2 °F 68% 29.74 in 10.0 mi SE 3.5 mph - N/A   Mostly Cloudy
7:55 PM 66.2 °F 55.4 °F 68% 29.73 in 10.0 mi SSE 5.8 mph - N/A   Mostly Cloudy
8:15 PM 64.4 °F 55.4 °F 73% 29.73 in 10.0 mi SSE 6.9 mph - N/A   Scattered Clouds
8:35 PM 64.4 °F 55.4 °F 73% 29.73 in 10.0 mi SSE 5.8 mph - N/A   Scattered Clouds
8:55 PM 64.4 °F 53.6 °F 68% 29.73 in 10.0 mi SE 6.9 mph - N/A   Scattered Clouds
9:15 PM 62.6 °F 53.6 °F 72% 29.73 in 10.0 mi SSE 5.8 mph - N/A   Clear
9:35 PM 62.6 °F 53.6 °F 72% 29.74 in 10.0 mi SSE 6.9 mph - N/A   Scattered Clouds
9:55 PM 62.6 °F 53.6 °F 72% 29.73 in 10.0 mi SSE 8.1 mph - N/A   Scattered Clouds
10:15 PM 64.4 °F 55.4 °F 73% 29.73 in 10.0 mi South 6.9 mph - N/A Rain Light Rain
10:35 PM 64.4 °F 55.4 °F 73% 29.73 in 10.0 mi South 10.4 mph - N/A   Mostly Cloudy
10:55 PM 64.4 °F 55.4 °F 73% 29.72 in 10.0 mi SSE 10.4 mph - N/A   Scattered Clouds
11:15 PM 64.4 °F 55.4 °F 73% 29.72 in 10.0 mi South 11.5 mph - N/A   Mostly Cloudy
11:35 PM 64.4 °F 55.4 °F 73% 29.71 in 10.0 mi SSE 12.7 mph - N/A   Scattered Clouds
11:55 PM 64.4 °F 55.4 °F 73% 29.71 in 10.0 mi SSE 13.8 mph - N/A   Scattered Clouds